Location: Nitra
(0.0000°N, 18.0833°E)
Time: 04:59:13
(UTC+01:00)

CZ-2C R/B - Pass Details

Date: 24 January 2021
Orbit: 785 x 870 km, 98.2° (Epoch: 04 March)

Event Time Altitude Azimuth Distance (km) Brightness Sun altitude
Rises 19:17:21 0° 353° (N) 3,439 5.7 -18.3°
Reaches altitude 10° 19:19:58 10° 343° (NNW) 2,505 5.1 -18.9°
Maximum altitude 19:24:49 31° 283° (WNW) 1,469 4.5 -20.0°
Drops below altitude 10° 19:29:41 10° 222° (SW) 2,500 6.0 -21.2°
Sets 19:32:19 0° 211° (SSW) 3,430 6.7 -21.8°
